This is the latest recevied weather packets stored in our database for station/object CE7LGA-10. If no packets are shown the sender has not sent any weather packets the latest 10 day(s).
| Time | Temp. | Humidity | Pressure | Rain* | Wind** | Luminosity | Snow |
|---|---|---|---|---|---|---|---|
| 1787955804 | 15.56° C | 67% | 997 hPa | - | - | - | - |
| 1787954904 | 15.56° C | 67% | 997.1 hPa | - | - | - | - |
| 1787954004 | 15.56° C | 68% | 997.1 hPa | - | - | - | - |
| 1787953104 | 15.56° C | 69% | 997.2 hPa | - | - | - | - |
| 1787952203 | 15.56° C | 71% | 997 hPa | - | - | - | - |
| 1787951303 | 15° C | 67% | 997.3 hPa | - | - | - | - |
| 1787950403 | 15° C | 68% | 997.3 hPa | - | - | - | - |
| 1787949503 | 15° C | 68% | 997.2 hPa | - | - | - | - |
| 1787948603 | 15° C | 68% | 997.4 hPa | - | - | - | - |
| 1787947703 | 15° C | 68% | 997.4 hPa | - | - | - | - |
| 1787946803 | 15° C | 68% | 997.5 hPa | - | - | - | - |
| 1787945903 | 15° C | 68% | 997.5 hPa | - | - | - | - |
| 1787945003 | 14.44° C | 69% | 997.5 hPa | - | - | - | - |
| 1787944103 | 15° C | 69% | 997.4 hPa | - | - | - | - |
| 1787943202 | 15° C | 70% | 997.4 hPa | - | - | - | - |
| 1787942302 | 15° C | 71% | 997.5 hPa | - | - | - | - |
| 1787941402 | 14.44° C | 73% | 997.6 hPa | - | - | - | - |
| 1787940502 | 14.44° C | 77% | 997.9 hPa | - | - | - | - |
| 1787939602 | 13.89° C | 73% | 998 hPa | - | - | - | - |
| 1787938702 | 13.33° C | 67% | 998.2 hPa | - | - | - | - |
| 1787937802 | 13.33° C | 67% | 998.4 hPa | - | - | - | - |
| 1787936902 | 13.89° C | 68% | 998.4 hPa | - | - | - | - |
| 1787936001 | 13.89° C | 67% | 998.2 hPa | - | - | - | - |
| 1787935104 | 13.33° C | 69% | 998.1 hPa | - | - | - | - |
| 1787934204 | 13.33° C | 68% | 998.2 hPa | - | - | - | - |
* Rain since midnight (hover to see other rain measurements)
** Current wind speed in m/s (hover to see current wind gust speed)